SR1WXZ Weather Reports


Display with metric or nautical units.
time (UTC)temp
F
wind
direction
speed
MPH
gust
MPH
rain 1hr
in
rain 24hr
in
rain mn
in
humidity
%
barometer
mb
20260504210040 52 0.0 0.0 0.00 0.00 0.00 87 1013.0
20260504204838 52 0.0 0.0 0.00 0.00 0.00 87 1013.0
20260504204542 52 0.0 0.0 0.00 0.00 0.00 87 1013.0
20260504203040 55 0.0 0.0 0.00 0.00 0.00 76 1013.0
20260504202836 55 0.0 0.0 0.00 0.00 0.00 76 1013.0
20260504201542 55 0.0 0.0 0.00 0.00 0.00 76 1013.0
20260504200834 57 0.0 0.0 0.00 0.00 0.00 71 1013.0
20260504200042 57 0.0 0.0 0.00 0.00 0.00 71 1013.0
20260504194838 57 0.0 0.0 0.00 0.00 0.00 71 1013.0
20260504194543 57 0.0 0.0 0.00 0.00 0.00 71 1013.0
20260504193039 57 360 3.0 0.0 0.00 0.00 0.00 71 1013.0
20260504192836 57 360 3.0 0.0 0.00 0.00 0.00 71 1013.0
20260504191542 57 360 3.0 0.0 0.00 0.00 0.00 71 1013.0
20260504190834 59 10 3.0 0.0 0.00 0.00 0.00 67 1012.0
20260504190042 59 10 3.0 0.0 0.00 0.00 0.00 67 1012.0
20260504184838 59 10 3.0 0.0 0.00 0.00 0.00 67 1012.0
20260504184541 59 10 3.0 0.0 0.00 0.00 0.00 67 1012.0
20260504183039 59 10 6.0 0.0 0.00 0.00 0.00 67 1012.0
20260504182837 59 10 6.0 0.0 0.00 0.00 0.00 67 1012.0
20260504181542 59 10 6.0 0.0 0.00 0.00 0.00 67 1012.0
20260504180835 61 360 7.0 0.0 0.00 0.00 0.00 63 1012.0
20260504180040 61 360 7.0 0.0 0.00 0.00 0.00 63 1012.0
20260504174837 61 360 7.0 0.0 0.00 0.00 0.00 63 1012.0
20260504174541 61 360 7.0 0.0 0.00 0.00 0.00 63 1012.0
20260504173039 63 10 7.0 0.0 0.00 0.00 0.00 63 1012.0
20260504172836 63 10 7.0 0.0 0.00 0.00 0.00 63 1012.0
20260504171542 63 10 7.0 0.0 0.00 0.00 0.00 63 1012.0
20260504170834 63 350 8.0 0.0 0.00 0.00 0.00 63 1012.0
20260504150834 66 360 7.0 0.0 0.00 0.00 0.00 59 1012.0
20260504140840 66 310 12.0 0.0 0.00 0.00 0.00 55 1012.0
20260504081541 64 250 10.0 0.0 0.00 0.00 0.00 63 1011.0
20260504080835 64 240 12.0 0.0 0.00 0.00 0.00 63 1011.0
20260504044838 63 250 6.0 0.0 0.00 0.00 0.00 59 1010.0
20260504044540 63 250 6.0 0.0 0.00 0.00 0.00 59 1010.0
20260504043038 63 240 7.0 0.0 0.00 0.00 0.00 59 1010.0
20260504042836 63 240 7.0 0.0 0.00 0.00 0.00 59 1010.0
20260504041541 63 240 7.0 0.0 0.00 0.00 0.00 59 1010.0
20260504040835 63 250 5.0 0.0 0.00 0.00 0.00 55 1010.0
20260504040039 63 250 5.0 0.0 0.00 0.00 0.00 55 1010.0
20260504034837 63 250 5.0 0.0 0.00 0.00 0.00 55 1010.0
20260504034540 63 250 5.0 0.0 0.00 0.00 0.00 55 1010.0
20260504033038 63 240 5.0 0.0 0.00 0.00 0.00 55 1010.0
20260504032835 63 240 5.0 0.0 0.00 0.00 0.00 55 1010.0
20260504031541 63 240 5.0 0.0 0.00 0.00 0.00 55 1010.0
20260504030833 63 220 3.0 0.0 0.00 0.00 0.00 51 1009.0
20260504030039 63 220 3.0 0.0 0.00 0.00 0.00 51 1009.0
20260504024838 63 220 3.0 0.0 0.00 0.00 0.00 51 1009.0
20260504024540 63 220 3.0 0.0 0.00 0.00 0.00 51 1009.0
20260504023038 63 240 5.0 0.0 0.00 0.00 0.00 51 1009.0
20260504022836 63 240 5.0 0.0 0.00 0.00 0.00 51 1009.0
20260504021541 63 240 5.0 0.0 0.00 0.00 0.00 51 1009.0
20260504020835 64 230 3.0 0.0 0.00 0.00 0.00 48 1009.0
20260504020039 64 230 3.0 0.0 0.00 0.00 0.00 48 1009.0
20260504014838 64 230 3.0 0.0 0.00 0.00 0.00 48 1009.0
20260504014540 64 230 3.0 0.0 0.00 0.00 0.00 48 1009.0
20260504013039 64 210 5.0 0.0 0.00 0.00 0.00 48 1009.0
20260504012837 64 210 5.0 0.0 0.00 0.00 0.00 48 1009.0
20260504011541 64 210 5.0 0.0 0.00 0.00 0.00 48 1009.0
20260504010835 64 190 3.0 0.0 0.00 0.00 0.00 48 1009.0
20260504010039 64 190 3.0 0.0 0.00 0.00 0.00 48 1009.0
20260504004838 64 190 3.0 0.0 0.00 0.00 0.00 48 1009.0
20260504004540 64 190 3.0 0.0 0.00 0.00 0.00 48 1009.0
20260504003038 55 130 3.0 0.0 0.00 0.00 0.00 71 1009.0
20260504002836 55 130 3.0 0.0 0.00 0.00 0.00 71 1009.0
20260504001541 55 130 3.0 0.0 0.00 0.00 0.00 71 1009.0
20260504000834 55 100 3.0 0.0 0.00 0.00 0.00 71 1009.0
20260504000039 55 100 3.0 0.0 0.00 0.00 0.00 71 1009.0
20260503234837 55 100 3.0 0.0 0.00 0.00 0.00 71 1009.0
20260503234539 55 100 3.0 0.0 0.00 0.00 0.00 71 1009.0
20260503233038 59 0.0 0.0 0.00 0.00 0.00 62 1009.0
20260503232836 59 0.0 0.0 0.00 0.00 0.00 62 1009.0
20260503231541 59 0.0 0.0 0.00 0.00 0.00 62 1009.0
20260503230834 59 0.0 0.0 0.00 0.00 0.00 62 1010.0
20260503230039 59 0.0 0.0 0.00 0.00 0.00 62 1010.0
20260503224836 59 0.0 0.0 0.00 0.00 0.00 62 1010.0
20260503224539 59 0.0 0.0 0.00 0.00 0.00 62 1010.0
20260503223038 61 0.0 0.0 0.00 0.00 0.00 58 1009.0
20260503222835 61 0.0 0.0 0.00 0.00 0.00 58 1009.0
20260503221547 61 0.0 0.0 0.00 0.00 0.00 58 1009.0
20260503220833 59 110 2.0 0.0 0.00 0.00 0.00 62 1009.0
20260503220039 59 110 2.0 0.0 0.00 0.00 0.00 62 1009.0
20260503214842 59 110 2.0 0.0 0.00 0.00 0.00 62 1009.0
20260503214540 59 110 2.0 0.0 0.00 0.00 0.00 62 1009.0
20260503213038 61 120 5.0 0.0 0.00 0.00 0.00 58 1009.0
20260503212841 61 120 5.0 0.0 0.00 0.00 0.00 58 1009.0
20260503211541 61 120 5.0 0.0 0.00 0.00 0.00 58 1009.0
20260503210839 61 120 3.0 0.0 0.00 0.00 0.00 58 1009.0